Theta_e
309 308 309 310 309 310 308 307 308 308 308 311 310 311 311 311 310 310 306 309 309 309 310 309 309 309 308 306 305 304 302 301 300 299 298 299 298 298 299 299 298 297 295 294
310 308 309 308 308 309 309 310 310 310 310 307 308 309 309 308 309 311 311 310 309 308 308 307 306 306 307 308 305 303 302 300 299 299 298 298 297 297 298 298 298 297 295 293
310 310 309 308 308 310 308 309 310 310 309 306 306 310 309 307 308 309 309 309 309 309 308 308 302 303 306 305 305 303 302 301 300 299 298 298 297 296 296 296 297 296 295 293
308 308 309 309 309 309 310 308 309 309 309 311 309 312 309 308 308 307 308 309 308 308 307 306 304 300 304 306 304 302 301 300 299 299 298 297 297 296 295 295 297 296 295 293
307 309 309 309 310 308 310 309 308 308 307 309 310 308 311 308 308 307 308 307 308 306 306 306 303 302 305 305 303 302 300 299 298 298 298 297 297 297 297 295 295 295 295 294
307 305 307 308 307 306 308 310 308 305 307 311 310 310 312 308 309 309 308 307 307 307 306 302 301 302 301 302 301 300 299 298 298 298 298 297 296 296 295 294 293 293 294 293
305 306 306 307 309 307 308 308 310 309 310 312 307 309 313 310 307 307 309 307 304 303 302 302 301 299 297 296 297 297 297 296 297 297 297 297 297 296 296 295 293 292 292 292
307 313 306 305 307 307 307 308 311 309 315 316 306 310 314 308 307 306 304 304 302 302 300 300 301 298 297 296 296 296 296 296 296 296 296 296 296 296 295 294 293 293 293 292
307 310 306 305 306 307 306 308 308 311 304 309 311 310 310 307 306 307 306 303 303 300 299 299 300 298 298 297 295 296 295 296 296 296 295 295 295 295 294 294 293 293 293 292
310 311 310 306 305 305 306 306 309 307 313 312 310 311 312 310 311 308 306 305 304 302 301 302 299 298 299 299 299 298 297 297 298 296 295 295 294 294 294 294 294 293 293 292
307 312 316 311 307 311 306 307 307 307 311 315 316 315 313 312 308 306 305 304 306 304 303 302 301 300 300 300 300 300 298 297 297 297 296 294 294 293 293 293 293 293 292 292
310 313 318 316 307 305 307 308 308 312 313 311 313 315 313 312 309 303 307 309 308 303 301 301 301 301 302 302 300 299 298 297 297 296 294 294 293 293 293 292 292 292 292 291
315 317 319 319 313 311 314 315 313 313 312 313 313 313 311 311 311 311 309 306 304 304 306 304 300 299 299 301 301 300 299 300 298 295 294 293 292 292 292 292 291 290 290 290
314 317 319 320 318 313 314 312 312 315 316 315 314 313 312 312 312 311 311 308 306 304 301 299 299 298 298 299 299 299 298 298 299 296 294 293 292 292 292 291 289 289 289 289
311 315 314 313 312 312 313 314 314 316 316 315 315 317 315 313 311 307 304 303 300 300 299 298 298 297 296 297 298 299 298 297 298 297 294 292 293 292 290 290 289 288 288 287
304 306 307 307 305 306 309 308 310 313 311 311 309 308 301 297 295 293 297 294 294 294 296 296 296 296 295 296 296 296 296 295 295 295 294 294 292 290 290 289 288 287 286 286
301 303 301 303 301 299 300 300 302 305 306 305 306 299 295 294 293 292 294 292 293 294 295 295 295 295 294 295 294 295 293 292 292 292 293 293 292 291 289 288 287 285 284 284
297 297 292 296 292 293 296 298 298 300 299 297 296 295 293 292 291 291 294 291 293 293 294 295 295 294 294 294 293 292 290 291 290 290 291 292 291 289 287 286 285 284 283 283
295 297 292 294 288 297 300 294 292 293 297 295 294 293 291 290 289 290 290 290 291 291 293 294 291 291 292 292 291 290 290 289 289 289 288 289 289 288 286 284 283 282 282 281
293 296 299 286 293 296 296 291 291 290 296 294 292 292 291 289 288 287 289 289 290 290 291 288 288 289 290 290 290 290 289 289 288 288 287 288 288 287 285 283 282 282 281 280
281 278 283 281 288 290 290 289 289 291 291 288 289 290 288 288 287 288 288 288 289 289 286 286 285 286 287 288 288 290 290 290 289 290 287 286 287 285 284 283 282 280 280 279
286 280 280 278 280 288 289 288 287 287 289 292 291 289 288 288 287 286 286 286 284 284 283 283 283 284 283 283 285 286 288 289 289 290 287 284 284 283 282 281 280 279 278 277
285 287 284 287 286 290 288 288 289 290 290 289 288 287 287 286 284 285 284 283 283 282 282 281 282 280 280 281 280 281 281 283 288 287 286 284 282 281 281 280 278 277 277 277
288 288 289 287 288 288 289 288 287 287 287 287 287 285 284 283 283 283 282 281 281 280 279 280 278 278 277 277 277 277 278 280 279 283 284 282 281 279 279 278 278 277 276 277
288 287 287 288 288 288 288 288 288 287 286 285 284 282 281 281 281 280 280 279 278 278 278 277 276 275 274 274 274 274 274 275 275 277 282 282 279 278 277 277 277 277 277 278
289 288 288 288 288 288 288 288 286 285 284 282 280 280 280 279 279 278 277 277 277 276 275 274 273 272 271 271 271 270 270 271 272 274 277 281 280 278 277 277 276 278 278 277
Wind_Speed
3 4 10 21 17 5 4 7 8 9 8 3 9 15 17 17 17 17 16 20 23 21 27 26 30 31 30 35 38 43 44 46 45 44 43 42 44 45 43 42 40 37 35 33
2 10 19 4 4 8 9 15 17 17 18 5 17 23 17 12 16 25 25 21 22 21 19 20 13 22 31 36 39 39 43 44 47 45 44 31 36 43 46 44 41 39 37 35
14 7 12 8 7 7 10 8 18 17 6 6 10 19 14 12 16 22 24 21 20 21 20 21 8 21 27 32 37 42 45 46 47 44 38 31 30 25 37 40 42 42 39 37
9 7 11 6 7 14 19 13 14 11 3 8 3 18 6 8 15 10 19 18 15 17 17 15 9 9 26 35 34 35 37 42 43 45 44 41 35 27 33 39 47 45 41 38
9 5 4 7 15 9 11 3 6 2 3 5 3 4 1 5 7 14 13 14 17 13 13 17 9 15 28 28 28 32 33 37 39 46 46 46 37 35 33 39 43 44 43 40
10 3 6 9 6 9 2 3 2 3 3 8 11 9 8 5 8 5 6 11 12 14 12 8 6 13 15 18 25 31 36 38 40 45 47 46 40 35 33 38 38 43 44 43
1 5 3 5 4 1 4 4 4 4 1 11 6 6 18 13 8 8 13 11 11 11 10 11 8 7 8 17 24 29 33 35 41 45 47 47 45 44 44 43 40 41 44 47
3 14 8 5 9 8 7 10 6 7 10 18 8 11 18 9 8 5 5 8 9 12 9 9 9 4 6 13 20 24 29 28 35 43 46 47 46 44 43 43 42 45 47 49
4 14 0 6 4 9 4 6 7 5 1 2 13 18 17 6 7 2 5 7 10 10 9 11 6 2 7 10 16 22 25 29 35 43 42 45 47 46 43 40 42 43 43 45
3 12 6 2 2 4 7 1 2 1 4 10 8 15 16 17 17 10 6 6 9 8 10 6 6 4 10 16 19 21 27 34 37 40 43 42 45 47 47 45 45 46 44 43
1 3 12 1 7 12 1 4 5 1 5 15 18 12 27 20 8 9 7 7 6 8 10 7 6 8 9 11 17 24 31 36 39 43 46 42 44 45 46 47 48 49 45 45
7 6 9 20 3 4 1 5 7 10 12 12 16 18 22 30 13 9 18 19 15 8 8 8 7 9 12 17 20 29 30 33 40 42 39 45 42 44 46 47 50 49 48 46
4 4 4 3 6 1 6 13 18 16 13 19 19 17 14 20 29 23 16 9 8 8 13 10 8 8 10 19 23 27 31 38 38 34 38 37 38 41 46 48 47 49 48 47
6 8 14 16 15 21 18 10 12 19 15 22 21 25 21 25 29 32 29 10 14 17 19 18 18 17 22 25 25 28 30 29 29 32 38 39 40 47 48 41 43 47 49 49
2 8 7 13 13 13 17 20 20 24 25 21 22 22 18 26 23 17 20 18 18 18 17 17 15 15 17 25 31 33 31 31 28 32 34 38 42 42 39 41 44 43 45 47
1 8 13 20 22 16 19 20 27 19 15 15 21 29 18 19 20 23 16 18 18 18 17 16 17 16 16 24 26 31 33 34 31 28 34 38 34 35 39 38 40 41 42 43
6 6 5 19 21 17 15 19 21 20 23 23 21 7 12 17 19 19 14 18 18 16 16 17 17 16 23 28 31 28 33 37 32 29 31 34 35 37 37 37 37 36 37 38
16 17 5 12 9 6 8 5 9 6 10 11 10 7 12 11 15 14 5 17 16 18 17 16 13 21 29 33 34 35 37 32 31 27 26 25 28 30 29 31 33 34 36 40
14 10 4 3 5 11 13 7 6 6 3 6 8 9 10 12 13 4 10 13 15 16 14 13 25 27 29 31 32 32 35 32 30 28 29 23 22 24 24 27 26 28 29 30
3 10 7 3 3 5 2 3 6 6 8 4 3 3 6 9 11 16 15 15 15 17 16 24 27 28 29 32 31 28 30 27 24 29 31 25 21 23 24 24 25 25 27 27
3 3 3 5 4 6 3 6 1 3 6 1 5 5 3 3 5 15 16 14 13 16 21 23 25 24 27 29 33 30 31 25 27 36 31 24 18 20 23 23 24 23 24 24
4 3 3 1 1 8 3 5 2 5 6 6 4 5 8 9 10 11 15 13 15 15 19 22 22 22 28 29 27 32 31 31 32 37 30 21 15 15 18 20 20 23 23 22
3 6 5 8 6 5 14 13 8 6 8 5 5 8 8 9 11 11 12 15 14 17 20 23 20 25 26 26 26 28 33 36 35 29 30 25 19 16 18 23 22 20 20 17
8 15 7 1 11 13 10 12 9 11 9 7 8 6 5 9 12 12 13 14 13 17 19 21 22 22 28 28 28 30 31 31 37 30 27 22 21 20 20 23 23 23 25 21
9 4 7 13 16 15 18 15 15 10 7 8 4 4 8 7 12 11 13 14 13 18 21 21 21 25 32 30 32 31 30 30 33 33 28 25 19 21 22 24 24 26 28 31
11 18 12 15 19 16 16 16 2 4 6 2 6 11 9 8 13 13 16 16 17 19 24 23 27 27 33 33 36 33 28 27 30 31 26 24 21 21 22 21 19 25 22 23
Wind_Direction
198 137 206 223 207 225 188 219 236 253 254 244 245 254 261 267 281 263 257 261 262 264 267 266 253 247 234 231 226 224 216 212 205 201 200 208 210 213 215 217 217 215 214 212
112 214 220 222 168 212 240 260 265 270 264 229 267 266 267 254 252 261 264 261 260 263 271 269 249 230 224 226 225 215 214 207 204 202 202 201 203 213 216 216 217 217 214 213
216 223 221 201 223 245 231 227 255 261 303 238 283 274 243 251 251 255 266 257 266 265 268 272 229 218 222 222 221 216 211 208 203 201 194 196 199 209 213 216 216 215 215 215
244 233 214 183 204 212 266 225 257 264 347 273 9 299 197 242 250 238 249 266 252 260 261 263 242 221 219 230 227 219 209 205 201 200 195 192 196 199 210 211 215 215 214 214
250 182 176 206 230 162 246 218 230 184 217 327 212 270 176 136 250 255 262 255 260 249 252 264 244 224 237 233 221 214 208 205 200 200 200 195 197 203 210 208 214 214 213 215
251 322 177 218 220 182 106 79 76 62 121 269 201 208 323 163 217 269 269 270 264 269 269 267 259 260 248 228 211 202 199 201 203 202 203 202 201 202 201 204 206 211 212 213
266 214 228 169 251 100 133 81 310 314 71 245 147 202 257 288 234 222 267 279 313 302 299 307 270 249 204 195 196 193 196 195 200 203 206 207 208 209 208 208 203 204 208 213
279 293 185 171 188 193 192 167 180 215 268 280 124 256 277 227 265 279 323 291 302 319 312 268 285 281 255 202 199 192 193 199 204 205 206 210 213 214 215 215 209 210 210 213
217 270 36 209 172 155 177 189 227 262 178 272 270 274 285 239 264 31 347 349 322 298 319 307 316 246 205 215 211 207 206 206 215 217 212 213 214 214 215 218 222 222 218 218
257 275 215 199 177 243 182 102 68 329 223 244 250 270 261 278 279 270 267 313 296 1 323 345 321 260 217 211 218 215 223 224 221 225 223 219 217 217 220 222 223 222 224 220
127 85 266 196 213 236 154 240 214 189 212 257 261 251 269 273 255 236 272 260 295 305 289 306 302 278 250 226 223 227 229 230 227 228 228 221 223 222 221 222 226 226 224 221
233 218 249 255 252 191 158 241 241 238 251 242 257 254 270 278 271 247 271 289 302 307 292 270 266 254 238 244 242 237 238 236 238 234 229 226 224 223 222 222 225 224 223 222
161 225 260 262 292 281 210 237 233 244 268 259 262 261 266 285 290 283 281 285 262 262 279 282 274 282 279 269 262 256 246 246 246 235 233 232 224 222 224 223 222 221 222 220
264 249 257 263 271 288 275 252 255 239 251 258 254 268 260 275 282 293 297 324 357 19 24 16 11 5 353 348 342 314 280 259 260 245 236 227 224 227 226 222 218 221 222 218
10 270 281 307 314 310 303 298 298 284 272 258 267 277 287 270 296 342 360 20 24 15 9 358 352 350 340 344 344 341 335 315 289 258 244 238 233 229 221 219 221 220 218 217
193 281 293 277 283 280 281 281 268 267 274 278 279 286 9 18 11 3 21 16 11 359 347 344 341 339 340 339 339 337 337 331 313 276 252 249 238 231 223 219 216 214 212 210
255 260 272 273 281 295 279 262 275 273 270 282 292 1 19 9 359 346 11 7 352 347 342 335 337 336 336 331 330 337 330 332 322 293 272 258 246 229 222 215 209 205 203 202
255 261 241 269 303 249 259 17 41 19 48 57 68 30 21 351 319 311 340 349 340 333 332 329 337 333 330 328 328 329 330 328 330 323 299 274 253 236 224 210 205 201 200 200
219 242 263 236 208 282 304 18 12 15 3 49 36 3 344 332 318 318 340 338 327 320 316 329 317 317 320 322 324 322 322 320 330 332 321 299 266 245 226 212 205 202 199 196
175 212 228 0 278 248 160 276 241 269 243 202 159 294 329 341 343 311 330 327 319 318 326 327 323 321 316 315 317 314 311 317 322 329 323 314 284 248 231 222 210 205 201 197
6 354 187 258 270 286 241 267 315 52 296 236 178 223 266 279 242 286 304 308 311 317 312 312 316 312 310 317 317 307 304 311 317 326 320 307 287 258 240 226 212 203 194 189
154 151 230 56 137 272 263 352 118 234 276 263 244 271 279 275 285 290 296 306 309 307 309 309 304 305 311 310 315 310 306 312 313 317 309 292 276 251 239 220 205 195 188 182
265 203 230 192 213 299 321 286 267 264 235 227 234 252 244 270 276 281 293 294 299 302 302 301 300 301 303 307 310 301 303 311 310 300 295 288 270 241 225 205 189 178 182 188
243 242 231 353 263 258 260 269 269 279 227 238 234 242 238 266 276 283 285 287 289 289 292 302 309 303 299 303 299 297 307 314 314 308 293 275 256 235 217 210 202 186 184 201
240 133 228 253 266 273 270 258 261 232 232 261 243 250 275 264 276 278 280 282 284 287 294 300 297 299 296 303 299 303 305 306 303 300 295 276 248 234 215 213 207 211 207 201
235 243 247 254 266 265 274 279 226 233 264 250 295 294 284 275 281 290 284 284 288 293 296 296 295 294 295 299 296 297 298 298 295 294 290 276 250 232 224 212 212 221 227 221